Location: Chuathbaluk
(61.5726°N, 159.2454°W)
Time: 14:09:15
(UTC+00:00)

XW-2F - Pass Details

Date: 19 January 2021
Orbit: 500 x 520 km, 97.5° (Epoch: 01 March)

Event Time Altitude Azimuth Distance (km) Brightness Sun altitude
Rises 03:26:46 0° 162° (SSE) 2,611 ? -8.7°
Reaches altitude 10° 03:28:50 10° 163° (SSE) 1,733 ? -8.9°
Maximum altitude 03:32:35 87° 255° (WSW) 523 ? -9.3°
Drops below altitude 10° 03:36:23 10° 343° (NNW) 1,759 ? -9.7°
Sets 03:38:30 0° 344° (NNW) 2,655 ? -9.9°
